Location: Trebic
(49.2170°N, 15.8830°E)
Time: 08:59:53
(UTC+02:00)

Transit 4A - Pass Details

Date: 26 July 2019
Orbit: 864 x 981 km, 66.8° (Epoch: 25 August)

Event Time Altitude Azimuth Distance (km) Brightness Sun altitude
Exits shadow 00:30:36 26° 127° (SE) 1,814 9.0 -20.9°
Maximum altitude 00:31:49 28° 109° (ESE) 1,750 9.1 -20.9°
Drops below altitude 10° 00:37:07 10° 53° (NE) 2,740 10.7 -21.0°
Sets 00:40:02 0° 42° (NE) 3,689 11.6 -21.0°
